This demonstration page uses our WeatherBlox Daily Observations layout. Learn more.

Left ArrowRight Arrow

Hourly Observations for December 15, 2020

Temp ( °F °C ) Dew Point ( °F °C ) Humidity (%) Winds ( mph kmh ) Pressure ( in mb ) Visibility ( mi km ) Precip ( " mm )
12:56 am 00:56 Cloudy 21 -6.1 18 -7.8 88 88 E 12 19 30.23 1024 10 16 0.00 0.00
1:21 am 01:21 Cloudy 21 -6 18 -8 86 86 E 10 17 30.29 1026 10 16 0.00 0.00
1:56 am 01:56 Cloudy 21 -6.1 18 -7.8 88 88 E 10 17 30.22 1023 10 16 0.00 0.00
2:56 am 02:56 Cloudy 21 -6.1 19 -7.2 92 92 E 12 19 30.21 1023 10 16 0.00 0.00
3:56 am 03:56 Cloudy 21 -6.1 19 -7.2 92 92 E 12 19 30.19 1023 10 16 0.00 0.00
4:38 am 04:38 Cloudy with Light Snow 21 -6 19 -7 93 93 ESE 16 26 30.24 1024 3 5 0.00 0.00
4:41 am 04:41 Cloudy with Light Snow 21 -6 19 -7 93 93 E 15 24 30.24 1024 2 3 0.00 0.00
4:48 am 04:48 Cloudy with Light Snow 21 -6 19 -7 93 93 E 14 22 30.24 1024 2 2 0.00 0.00
4:56 am 04:56 Cloudy with Light Snow 21 -6.1 18 -7.8 88 88 E 15 24 30.19 1022 2 3 0.00 0.00
5:13 am 05:13 Cloudy with Light Snow 21 -6 19 -7 93 93 E 13 20 30.24 1024 2 3 0.00 0.00
5:35 am 05:35 Cloudy with Light Snow 21 -6 19 -7 93 93 E 13 20 30.24 1024 2 3 0.00 0.00
5:56 am 05:56 Cloudy with Light Snow 21 -6.1 19 -7.2 92 92 ESE 14 22 30.19 1023 2 3 0.00 0.00
6:07 am 06:07 Cloudy with Light Snow 21 -6 19 -7 93 93 E 15 24 30.26 1025 2 3 0.00 0.00
6:41 am 06:41 Cloudy with Light Snow 21 -6 19 -7 93 93 ESE 13 20 30.26 1025 3 5 0.00 0.00
6:51 am 06:51 Cloudy with Light Snow 21 -6 19 -7 93 93 ESE 15 24 30.26 1025 3 5 0.00 0.00
6:56 am 06:56 Cloudy with Light Snow 21 -6.1 19 -7.2 92 92 ESE 14 22 30.20 1023 3 5 0.00 0.00
7:19 am 07:19 Cloudy with Light Snow 21 -6 19 -7 93 93 ESE 13 20 30.27 1025 3 4 0.00 0.00
7:40 am 07:40 Cloudy with Light Snow 21 -6 19 -7 93 93 ESE 14 22 30.26 1025 2 3 0.00 0.00
7:49 am 07:49 Cloudy with Light Snow 21 -6 19 -7 93 93 ESE 13 20 30.26 1025 1 2 0.00 0.00
7:56 am 07:56 Cloudy with Light Snow 21 -6.1 19 -7.2 92 92 ESE 14 22 30.20 1023 1 2 0.00 0.00
8:11 am 08:11 Cloudy with Light Snow 21 -6 19 -7 93 93 ESE 13 20 30.27 1025 1 2 0.00 0.00
8:38 am 08:38 Cloudy with Light Snow 21 -6 19 -7 93 93 ESE 10 17 30.27 1025 1 2 0.00 0.00
8:56 am 08:56 Cloudy with Light Snow 21 -6.1 19 -7.2 92 92 ESE 9 15 30.22 1023 1 2 0.00 0.00
9:07 am 09:07 Cloudy with Light Snow 21 -6 19 -7 93 93 ESE 9 15 30.28 1025 1 2 0.01 0.25
9:27 am 09:27 Cloudy with Light Snow 21 -6 19 -7 93 93 ESE 7 11 30.29 1026 1 1 0.02 0.51
9:41 am 09:41 Cloudy with Light Snow 21 -6 19 -7 93 93 ESE 6 9 30.29 1026 1 2 0.02 0.51
9:45 am 09:45 Cloudy with Light Snow 21 -6 19 -7 93 93 ESE 6 9 30.29 1026 1 1 0.03 0.76
9:56 am 09:56 Cloudy with Light Snow 22 -5.6 20 -6.7 92 92 ESE 6 9 30.23 1024 1 2 0.04 1.02
10:06 am 10:06 Cloudy with Light Snow 21 -6 19 -7 93 93 E 6 9 30.30 1026 3 5 0.00 0.00
10:25 am 10:25 Cloudy with Light Snow 23 -5 21 -6 93 93 E 8 13 30.29 1026 5 8 0.00 0.00
10:37 am 10:37 Cloudy with Light Snow 23 -5 21 -6 93 93 ESE 7 11 30.29 1026 3 5 0.00 0.00
10:56 am 10:56 Cloudy with Light Snow 24 -4.4 21 -6.1 88 88 ESE 9 15 30.23 1024 8 13 0.00 0.00
11:56 am 11:56 Cloudy 23 -5 19 -7.2 85 85 ENE 7 11 30.21 1023 8 13 0.01 0.25
12:56 pm 12:56 Cloudy 23 -5 19 -7.2 85 85 NE 7 11 30.19 1022 9 14 0.00 0.00
1:44 pm 13:44 Cloudy 23 -5 19 -7 86 86 ENE 6 9 30.23 1024 8 13 0.00 0.00
1:56 pm 13:56 Cloudy 24 -4.4 19 -7.2 81 81 ENE 7 11 30.17 1022 9 14 0.00 0.00
2:56 pm 14:56 Cloudy 23 -5 19 -7.2 85 85 ENE 6 9 30.15 1021 9 14 0.00 0.00
3:56 pm 15:56 Cloudy with Light Snow 23 -5 19 -7.2 85 85 ENE 5 7 30.14 1021 7 11 0.00 0.00
4:56 pm 16:56 Cloudy with Light Snow 21 -6.1 18 -7.8 88 88 NE 5 7 30.16 1021 7 11 0.00 0.00
5:56 pm 17:56 Cloudy with Light Snow 21 -6.1 18 -7.8 88 88 NE 3 6 30.16 1021 5 8 0.00 0.00
6:56 pm 18:56 Cloudy with Light Snow 21 -6.1 18 -7.8 88 88 NNW 3 6 30.16 1021 8 13 0.00 0.00
7:56 pm 19:56 Cloudy with Light Snow 21 -6.1 18 -7.8 88 88 Calm 30.16 1021 5 8 0.00 0.00
8:56 pm 20:56 Cloudy with Light Snow 20 -6.7 17 -8.3 89 89 SE 3 6 30.14 1021 6 10 0.00 0.00
9:56 pm 21:56 Cloudy with Light Snow 20 -6.7 17 -8.3 89 89 Calm 30.13 1020 6 10 0.00 0.00
10:56 pm 22:56 Mostly Cloudy with Light Snow 18 -7.8 15 -9.4 88 88 Calm 30.12 1020 4 6 0.00 0.00
11:04 pm 23:04 Partly Cloudy with Scattered Snow Showers 18 -8 14 -10 86 86 S 3 6 30.20 1023 2 3 0.00 0.00
11:16 pm 23:16 Partly Cloudy with Isolated Snow Showers 18 -8 16 -9 93 93 SSE 6 9 30.19 1022 1 1 0.00 0.00
11:27 pm 23:27 Mostly Cloudy with Light Snow 16 -9 12 -11 86 86 S 5 7 30.20 1023 1 1 0.00 0.00
11:34 pm 23:34 Mostly Cloudy with Light Snow 14 -10 10 -12 85 85 S 3 6 30.21 1023 0 0 0.00 0.00
11:56 pm 23:56 Cloudy with Light Snow 12 -11.1 10 -12.2 92 92 S 6 9 30.12 1020 0 0 0.00 0.00

Powered by AerisWeather